Wetterdaten: Mittwoch, 24.11.2010
Datum Zeit Temp. A. Feuchte A. Luftdruck Regen Wind Richtung Richtung Sonnenschein UV Solar Windben
24.11.2010 00:00 3,7 C 91 % 1001,7 hPa 0,3 mm 8,0 km/h (2 Bft) W 270 0 min 0 UV-I 0 W/m 30,6 km/h (5 Bft)
24.11.2010 00:10 3,7 C 91 % 1001,6 hPa 0,0 mm 8,0 km/h (2 Bft) W 270 0 min 0 UV-I 0 W/m 20,9 km/h (4 Bft)
24.11.2010 00:20 3,7 C 91 % 1001,7 hPa 0,0 mm 8,0 km/h (2 Bft) W 270 0 min 0 UV-I 0 W/m 27,4 km/h (4 Bft)
24.11.2010 00:30 3,7 C 91 % 1001,8 hPa 0,0 mm 6,4 km/h (2 Bft) W 270 0 min 0 UV-I 0 W/m 19,3 km/h (3 Bft)
24.11.2010 00:40 3,7 C 91 % 1001,7 hPa 0,3 mm 6,4 km/h (2 Bft) W 270 0 min 0 UV-I 0 W/m 19,3 km/h (3 Bft)
24.11.2010 00:50 3,7 C 91 % 1001,8 hPa 0,0 mm 4,8 km/h (1 Bft) W 270 0 min 0 UV-I 0 W/m 19,3 km/h (3 Bft)
24.11.2010 01:00 3,7 C 91 % 1001,8 hPa 0,0 mm 6,4 km/h (2 Bft) W-NW 292 0 min 0 UV-I 0 W/m 20,9 km/h (4 Bft)
24.11.2010 01:10 3,7 C 91 % 1001,8 hPa 0,0 mm 6,4 km/h (2 Bft) W-NW 292 0 min 0 UV-I 0 W/m 24,1 km/h (4 Bft)
24.11.2010 01:20 3,7 C 91 % 1001,8 hPa 0,0 mm 4,8 km/h (1 Bft) W 270 0 min 0 UV-I 0 W/m 17,7 km/h (3 Bft)
24.11.2010 01:30 3,7 C 91 % 1001,9 hPa 0,0 mm 4,8 km/h (1 Bft) W 270 0 min 0 UV-I 0 W/m 17,7 km/h (3 Bft)
24.11.2010 01:40 3,7 C 91 % 1002,1 hPa 0,0 mm 6,4 km/h (2 Bft) W 270 0 min 0 UV-I 0 W/m 20,9 km/h (4 Bft)
24.11.2010 01:50 3,6 C 91 % 1002,1 hPa 0,3 mm 6,4 km/h (2 Bft) W 270 0 min 0 UV-I 0 W/m 19,3 km/h (3 Bft)
24.11.2010 02:00 3,6 C 91 % 1002,0 hPa 0,0 mm 4,8 km/h (1 Bft) W 270 0 min 0 UV-I 0 W/m 16,1 km/h (3 Bft)
24.11.2010 02:10 3,6 C 91 % 1002,1 hPa 0,0 mm 6,4 km/h (2 Bft) W 270 0 min 0 UV-I 0 W/m 24,1 km/h (4 Bft)
24.11.2010 02:20 3,6 C 91 % 1002,1 hPa 0,0 mm 8,0 km/h (2 Bft) W 270 0 min 0 UV-I 0 W/m 25,7 km/h (4 Bft)
24.11.2010 02:30 3,6 C 91 % 1002,2 hPa 0,0 mm 4,8 km/h (1 Bft) W 270 0 min 0 UV-I 0 W/m 22,5 km/h (4 Bft)
24.11.2010 02:40 3,6 C 91 % 1002,2 hPa 0,0 mm 4,8 km/h (1 Bft) W-NW 292 0 min 0 UV-I 0 W/m 17,7 km/h (3 Bft)
24.11.2010 02:50 3,6 C 91 % 1002,3 hPa 0,0 mm 4,8 km/h (1 Bft) W 270 0 min 0 UV-I 0 W/m 19,3 km/h (3 Bft)
24.11.2010 03:00 3,5 C 91 % 1002,5 hPa 0,0 mm 6,4 km/h (2 Bft) W 270 0 min 0 UV-I 0 W/m 16,1 km/h (3 Bft)
24.11.2010 03:10 3,4 C 91 % 1002,6 hPa 0,0 mm 6,4 km/h (2 Bft) W 270 0 min 0 UV-I 0 W/m 19,3 km/h (3 Bft)
24.11.2010 03:20 3,4 C 91 % 1002,6 hPa 0,0 mm 8,0 km/h (2 Bft) W 270 0 min 0 UV-I 0 W/m 22,5 km/h (4 Bft)
24.11.2010 03:30 3,4 C 91 % 1002,8 hPa 0,0 mm 3,2 km/h (1 Bft) W-NW 292 0 min 0 UV-I 0 W/m 16,1 km/h (3 Bft)
24.11.2010 03:40 3,4 C 91 % 1002,7 hPa 0,0 mm 6,4 km/h (2 Bft) W 270 0 min 0 UV-I 0 W/m 17,7 km/h (3 Bft)
24.11.2010 03:50 3,4 C 91 % 1002,7 hPa 0,0 mm 3,2 km/h (1 Bft) W-NW 292 0 min 0 UV-I 0 W/m 16,1 km/h (3 Bft)
24.11.2010 04:00 3,5 C 91 % 1002,7 hPa 0,0 mm 4,8 km/h (1 Bft) W 270 0 min 0 UV-I 0 W/m 16,1 km/h (3 Bft)
24.11.2010 04:10 3,5 C 90 % 1002,6 hPa 0,0 mm 4,8 km/h (1 Bft) W 270 0 min 0 UV-I 0 W/m 16,1 km/h (3 Bft)
24.11.2010 04:20 3,4 C 90 % 1002,7 hPa 0,0 mm 6,4 km/h (2 Bft) W 270 0 min 0 UV-I 0 W/m 20,9 km/h (4 Bft)
24.11.2010 04:30 3,4 C 90 % 1002,7 hPa 0,0 mm 6,4 km/h (2 Bft) W 270 0 min 0 UV-I 0 W/m 17,7 km/h (3 Bft)
24.11.2010 04:40 3,4 C 90 % 1002,8 hPa 0,0 mm 4,8 km/h (1 Bft) W 270 0 min 0 UV-I 0 W/m 19,3 km/h (3 Bft)
24.11.2010 04:50 3,4 C 90 % 1002,9 hPa 0,0 mm 6,4 km/h (2 Bft) W 270 0 min 0 UV-I 0 W/m 19,3 km/h (3 Bft)
24.11.2010 05:00 3,4 C 90 % 1002,9 hPa 0,0 mm 4,8 km/h (1 Bft) W 270 0 min 0 UV-I 0 W/m 17,7 km/h (3 Bft)
24.11.2010 05:10 3,4 C 90 % 1002,9 hPa 0,0 mm 6,4 km/h (2 Bft) W 270 0 min 0 UV-I 0 W/m 19,3 km/h (3 Bft)
24.11.2010 05:20 3,3 C 90 % 1002,9 hPa 0,0 mm 6,4 km/h (2 Bft) W 270 0 min 0 UV-I 0 W/m 17,7 km/h (3 Bft)
24.11.2010 05:30 3,3 C 90 % 1003,0 hPa 0,0 mm 4,8 km/h (1 Bft) W 270 0 min 0 UV-I 0 W/m 16,1 km/h (3 Bft)
24.11.2010 05:40 3,3 C 90 % 1003,0 hPa 0,0 mm 3,2 km/h (1 Bft) W 270 0 min 0 UV-I 0 W/m 14,5 km/h (3 Bft)
24.11.2010 05:50 3,3 C 90 % 1003,1 hPa 0,0 mm 3,2 km/h (1 Bft) W 270 0 min 0 UV-I 0 W/m 11,3 km/h (2 Bft)
24.11.2010 06:00 3,3 C 90 % 1003,0 hPa 0,0 mm 3,2 km/h (1 Bft) W 270 0 min 0 UV-I 0 W/m 11,3 km/h (2 Bft)
24.11.2010 06:10 3,3 C 90 % 1003,1 hPa 0,0 mm 3,2 km/h (1 Bft) W 270 0 min 0 UV-I 0 W/m 16,1 km/h (3 Bft)
24.11.2010 06:20 3,2 C 90 % 1003,1 hPa 0,0 mm 4,8 km/h (1 Bft) W 270 0 min 0 UV-I 0 W/m 11,3 km/h (2 Bft)
24.11.2010 06:30 3,2 C 90 % 1003,1 hPa 0,0 mm 3,2 km/h (1 Bft) W-NW 292 0 min 0 UV-I 0 W/m 16,1 km/h (3 Bft)
24.11.2010 06:40 3,2 C 90 % 1003,2 hPa 0,0 mm 3,2 km/h (1 Bft) W 270 0 min 0 UV-I 0 W/m 14,5 km/h (3 Bft)
24.11.2010 06:50 3,1 C 90 % 1003,3 hPa 0,0 mm 3,2 km/h (1 Bft) W 270 0 min 0 UV-I 0 W/m 9,7 km/h (2 Bft)
24.11.2010 07:00 3,1 C 90 % 1003,3 hPa 0,0 mm 1,6 km/h (1 Bft) W 270 0 min 0 UV-I 0 W/m 8,0 km/h (2 Bft)
24.11.2010 07:10 3,1 C 90 % 1003,3 hPa 0,0 mm 3,2 km/h (1 Bft) W 270 0 min 0 UV-I 0 W/m 9,7 km/h (2 Bft)
24.11.2010 07:20 3,1 C 90 % 1003,4 hPa 0,0 mm 1,6 km/h (1 Bft) W-NW 292 0 min 0 UV-I 0 W/m 6,4 km/h (2 Bft)
24.11.2010 07:30 3,1 C 90 % 1003,4 hPa 0,0 mm 1,6 km/h (1 Bft) W-NW 292 0 min 0 UV-I 0 W/m 11,3 km/h (2 Bft)
24.11.2010 07:40 3,1 C 90 % 1003,3 hPa 0,0 mm 1,6 km/h (1 Bft) W-NW 292 0 min 0 UV-I 0 W/m 9,7 km/h (2 Bft)
24.11.2010 07:50 3,1 C 90 % 1003,3 hPa 0,0 mm 1,6 km/h (1 Bft) W 270 0 min 0 UV-I 0 W/m 8,0 km/h (2 Bft)
24.11.2010 08:00 3,0 C 90 % 1003,3 hPa 0,0 mm 1,6 km/h (1 Bft) NW 315 0 min 0 UV-I 0 W/m 6,4 km/h (2 Bft)
24.11.2010 08:10 3,0 C 90 % 1003,5 hPa 0,0 mm 1,6 km/h (1 Bft) W-NW 292 0 min 0 UV-I 0 W/m 6,4 km/h (2 Bft)
24.11.2010 08:20 3,0 C 90 % 1003,6 hPa 0,0 mm 1,6 km/h (1 Bft) W-NW 292 0 min 0 UV-I 0 W/m 9,7 km/h (2 Bft)
24.11.2010 08:30 3,0 C 90 % 1003,7 hPa 0,0 mm 0,0 km/h (0 Bft) W-NW 292 0 min 0 UV-I 5 W/m 4,8 km/h (1 Bft)
24.11.2010 08:40 3,1 C 90 % 1003,7 hPa 0,0 mm 1,6 km/h (1 Bft) W-NW 292 0 min 0 UV-I 7 W/m 4,8 km/h (1 Bft)
24.11.2010 08:50 3,1 C 90 % 1003,8 hPa 0,0 mm 1,6 km/h (1 Bft) W 270 0 min 0 UV-I 12 W/m 6,4 km/h (2 Bft)
24.11.2010 09:00 3,1 C 90 % 1003,7 hPa 0,0 mm 1,6 km/h (1 Bft) W 270 0 min 0 UV-I 14 W/m 8,0 km/h (2 Bft)
24.11.2010 09:10 3,1 C 90 % 1003,7 hPa 0,0 mm 1,6 km/h (1 Bft) W-NW 292 0 min 0 UV-I 11 W/m 8,0 km/h (2 Bft)
24.11.2010 09:20 3,1 C 90 % 1003,9 hPa 0,3 mm 3,2 km/h (1 Bft) NW 315 0 min 0 UV-I 11 W/m 16,1 km/h (3 Bft)
24.11.2010 09:30 3,0 C 90 % 1003,9 hPa 0,3 mm 1,6 km/h (1 Bft) W-NW 292 0 min 0 UV-I 18 W/m 11,3 km/h (2 Bft)
24.11.2010 09:40 2,9 C 90 % 1003,9 hPa 0,0 mm 1,6 km/h (1 Bft) NW 315 0 min 0 UV-I 26 W/m 4,8 km/h (1 Bft)
24.11.2010 09:50 2,8 C 90 % 1004,0 hPa 0,0 mm 0,0 km/h (0 Bft) NW 315 0 min 0 UV-I 30 W/m 4,8 km/h (1 Bft)
24.11.2010 10:00 2,7 C 90 % 1004,0 hPa 0,0 mm 0,0 km/h (0 Bft) NW 315 0 min 0 UV-I 46 W/m 4,8 km/h (1 Bft)
24.11.2010 10:10 2,7 C 90 % 1004,0 hPa 0,0 mm 0,0 km/h (0 Bft) NW 315 0 min 0 UV-I 69 W/m 3,2 km/h (1 Bft)
24.11.2010 10:20 2,6 C 90 % 1004,0 hPa 0,0 mm 0,0 km/h (0 Bft) NW 315 0 min 0 UV-I 100 W/m 4,8 km/h (1 Bft)
24.11.2010 10:30 2,7 C 91 % 1004,1 hPa 0,0 mm 1,6 km/h (1 Bft) W 270 0 min 1 UV-I 98 W/m 9,7 km/h (2 Bft)
24.11.2010 10:40 2,8 C 91 % 1004,2 hPa 0,0 mm 1,6 km/h (1 Bft) W 270 10 min 1 UV-I 183 W/m 8,0 km/h (2 Bft)
24.11.2010 10:50 3,1 C 91 % 1004,3 hPa 0,0 mm 1,6 km/h (1 Bft) W 270 0 min 1 UV-I 144 W/m 6,4 km/h (2 Bft)
24.11.2010 11:00 3,2 C 91 % 1004,3 hPa 0,0 mm 1,6 km/h (1 Bft) W 270 0 min 0 UV-I 141 W/m 6,4 km/h (2 Bft)
24.11.2010 11:10 3,3 C 91 % 1004,2 hPa 0,0 mm 1,6 km/h (1 Bft) W 270 0 min 0 UV-I 113 W/m 9,7 km/h (2 Bft)
24.11.2010 11:20 3,3 C 91 % 1004,2 hPa 0,0 mm 1,6 km/h (1 Bft) W 270 0 min 1 UV-I 105 W/m 6,4 km/h (2 Bft)
24.11.2010 11:30 3,3 C 91 % 1004,1 hPa 0,0 mm 1,6 km/h (1 Bft) W 270 0 min 0 UV-I 95 W/m 8,0 km/h (2 Bft)
24.11.2010 11:40 3,4 C 91 % 1004,0 hPa 0,0 mm 1,6 km/h (1 Bft) W 270 0 min 0 UV-I 93 W/m 8,0 km/h (2 Bft)
24.11.2010 11:50 3,4 C 91 % 1004,0 hPa 0,0 mm 1,6 km/h (1 Bft) W 270 0 min 1 UV-I 116 W/m 6,4 km/h (2 Bft)
24.11.2010 12:00 3,4 C 90 % 1004,0 hPa 0,0 mm 1,6 km/h (1 Bft) W 270 0 min 1 UV-I 118 W/m 6,4 km/h (2 Bft)
24.11.2010 12:10 3,4 C 90 % 1004,2 hPa 0,0 mm 1,6 km/h (1 Bft) W 270 0 min 1 UV-I 91 W/m 11,3 km/h (2 Bft)
24.11.2010 12:20 3,4 C 91 % 1004,3 hPa 0,0 mm 1,6 km/h (1 Bft) W 270 0 min 1 UV-I 93 W/m 6,4 km/h (2 Bft)
24.11.2010 12:30 3,5 C 90 % 1004,2 hPa 0,0 mm 1,6 km/h (1 Bft) W-SW 247 0 min 1 UV-I 100 W/m 9,7 km/h (2 Bft)
24.11.2010 12:40 3,5 C 90 % 1004,2 hPa 0,0 mm 1,6 km/h (1 Bft) W-SW 247 0 min 0 UV-I 97 W/m 6,4 km/h (2 Bft)
24.11.2010 12:50 3,6 C 90 % 1004,2 hPa 0,0 mm 1,6 km/h (1 Bft) W-SW 247 0 min 0 UV-I 125 W/m 6,4 km/h (2 Bft)
24.11.2010 13:00 3,6 C 90 % 1004,2 hPa 0,3 mm 3,2 km/h (1 Bft) W 270 0 min 0 UV-I 114 W/m 11,3 km/h (2 Bft)
24.11.2010 13:10 3,6 C 90 % 1004,2 hPa 0,0 mm 3,2 km/h (1 Bft) W 270 0 min 1 UV-I 114 W/m 8,0 km/h (2 Bft)
24.11.2010 13:20 3,6 C 90 % 1004,2 hPa 0,0 mm 1,6 km/h (1 Bft) W 270 0 min 1 UV-I 114 W/m 4,8 km/h (1 Bft)
24.11.2010 13:30 3,6 C 89 % 1004,2 hPa 0,0 mm 1,6 km/h (1 Bft) W 270 0 min 1 UV-I 114 W/m 6,4 km/h (2 Bft)
24.11.2010 13:40 3,6 C 89 % 1004,1 hPa 0,0 mm 0,0 km/h (0 Bft) W 270 0 min 1 UV-I 121 W/m 4,8 km/h (1 Bft)
24.11.2010 13:50 3,7 C 89 % 1004,2 hPa 0,0 mm 1,6 km/h (1 Bft) W 270 0 min 0 UV-I 102 W/m 8,0 km/h (2 Bft)
24.11.2010 14:00 3,7 C 89 % 1004,1 hPa 0,0 mm 1,6 km/h (1 Bft) W 270 0 min 0 UV-I 93 W/m 4,8 km/h (1 Bft)
24.11.2010 14:10 3,7 C 89 % 1003,9 hPa 0,0 mm 1,6 km/h (1 Bft) W 270 0 min 0 UV-I 81 W/m 6,4 km/h (2 Bft)
24.11.2010 14:20 3,7 C 89 % 1004,0 hPa 0,0 mm 1,6 km/h (1 Bft) W 270 0 min 0 UV-I 79 W/m 4,8 km/h (1 Bft)
24.11.2010 14:30 3,7 C 88 % 1003,9 hPa 0,0 mm 1,6 km/h (1 Bft) W 270 0 min 0 UV-I 83 W/m 6,4 km/h (2 Bft)
24.11.2010 14:40 3,7 C 88 % 1003,9 hPa 0,0 mm 1,6 km/h (1 Bft) W 270 0 min 0 UV-I 77 W/m 8,0 km/h (2 Bft)
24.11.2010 14:50 3,7 C 88 % 1003,9 hPa 0,0 mm 1,6 km/h (1 Bft) W 270 0 min 0 UV-I 46 W/m 6,4 km/h (2 Bft)
24.11.2010 15:00 3,7 C 88 % 1004,0 hPa 0,0 mm 0,0 km/h (0 Bft) W 270 0 min 0 UV-I 35 W/m 6,4 km/h (2 Bft)
24.11.2010 15:10 3,7 C 87 % 1004,1 hPa 0,0 mm 1,6 km/h (1 Bft) W 270 0 min 0 UV-I 28 W/m 4,8 km/h (1 Bft)
24.11.2010 15:20 3,7 C 87 % 1004,2 hPa 0,0 mm 1,6 km/h (1 Bft) W 270 0 min 0 UV-I 19 W/m 9,7 km/h (2 Bft)
24.11.2010 15:30 3,6 C 86 % 1004,3 hPa 0,0 mm 4,8 km/h (1 Bft) N-NO 22 0 min 0 UV-I 5 W/m 20,9 km/h (4 Bft)
24.11.2010 15:40 3,2 C 85 % 1004,3 hPa 0,0 mm 3,2 km/h (1 Bft) N 360 0 min 0 UV-I 12 W/m 9,7 km/h (2 Bft)
24.11.2010 15:50 2,9 C 85 % 1004,4 hPa 0,0 mm 1,6 km/h (1 Bft) N-NO 22 0 min 0 UV-I 14 W/m 9,7 km/h (2 Bft)
24.11.2010 16:00 2,6 C 85 % 1004,5 hPa 0,0 mm 3,2 km/h (1 Bft) N-NO 22 0 min 0 UV-I 7 W/m 16,1 km/h (3 Bft)
24.11.2010 16:10 2,3 C 85 % 1004,5 hPa 0,0 mm 3,2 km/h (1 Bft) N-NO 22 0 min 0 UV-I 0 W/m 11,3 km/h (2 Bft)
24.11.2010 16:20 2,0 C 85 % 1004,6 hPa 0,0 mm 1,6 km/h (1 Bft) N-NO 22 0 min 0 UV-I 0 W/m 8,0 km/h (2 Bft)
24.11.2010 16:30 1,8 C 85 % 1004,7 hPa 0,0 mm 0,0 km/h (0 Bft) N-NO 22 0 min 0 UV-I 0 W/m 4,8 km/h (1 Bft)
24.11.2010 16:40 1,7 C 85 % 1004,8 hPa 0,0 mm 0,0 km/h (0 Bft) N-NO 22 0 min 0 UV-I 0 W/m 3,2 km/h (1 Bft)
24.11.2010 16:50 1,6 C 85 % 1004,9 hPa 0,0 mm 0,0 km/h (0 Bft) N-NO 22 0 min 0 UV-I 0 W/m 1,6 km/h (1 Bft)
24.11.2010 17:00 1,4 C 85 % 1004,9 hPa 0,0 mm 0,0 km/h (0 Bft) N-NO 22 0 min 0 UV-I 0 W/m 1,6 km/h (1 Bft)
24.11.2010 17:10 1,4 C 85 % 1005,0 hPa 0,0 mm 0,0 km/h (0 Bft) N 0 0 min 0 UV-I 0 W/m 0,0 km/h (0 Bft)
24.11.2010 17:20 1,4 C 86 % 1004,9 hPa 0,0 mm 0,0 km/h (0 Bft) N-NO 22 0 min 0 UV-I 0 W/m 1,6 km/h (1 Bft)
24.11.2010 17:30 1,3 C 86 % 1005,0 hPa 0,0 mm 0,0 km/h (0 Bft) N-NO 22 0 min 0 UV-I 0 W/m 1,6 km/h (1 Bft)
24.11.2010 17:40 1,2 C 86 % 1005,1 hPa 0,0 mm 0,0 km/h (0 Bft) N 0 0 min 0 UV-I 0 W/m 0,0 km/h (0 Bft)
24.11.2010 17:50 1,2 C 86 % 1005,0 hPa 0,0 mm 0,0 km/h (0 Bft) N-NO 22 0 min 0 UV-I 0 W/m 1,6 km/h (1 Bft)
24.11.2010 18:00 1,1 C 86 % 1005,0 hPa 0,0 mm 0,0 km/h (0 Bft) N-NO 22 0 min 0 UV-I 0 W/m 3,2 km/h (1 Bft)
24.11.2010 18:10 1,1 C 86 % 1005,1 hPa 0,0 mm 0,0 km/h (0 Bft) N-NO 22 0 min 0 UV-I 0 W/m 1,6 km/h (1 Bft)
24.11.2010 18:20 1,0 C 87 % 1005,0 hPa 0,0 mm 0,0 km/h (0 Bft) N-NO 22 0 min 0 UV-I 0 W/m 1,6 km/h (1 Bft)
24.11.2010 18:30 0,9 C 87 % 1005,0 hPa 0,0 mm 0,0 km/h (0 Bft) N 0 0 min 0 UV-I 0 W/m 0,0 km/h (0 Bft)
24.11.2010 18:40 0,9 C 87 % 1005,0 hPa 0,0 mm 0,0 km/h (0 Bft) N-NO 22 0 min 0 UV-I 0 W/m 1,6 km/h (1 Bft)
24.11.2010 18:50 0,9 C 87 % 1005,0 hPa 0,0 mm 0,0 km/h (0 Bft) N 0 0 min 0 UV-I 0 W/m 0,0 km/h (0 Bft)
24.11.2010 19:00 0,8 C 87 % 1004,9 hPa 0,0 mm 0,0 km/h (0 Bft) N 0 0 min 0 UV-I 0 W/m 0,0 km/h (0 Bft)
24.11.2010 19:10 0,8 C 88 % 1004,9 hPa 0,0 mm 0,0 km/h (0 Bft) N 0 0 min 0 UV-I 0 W/m 0,0 km/h (0 Bft)
24.11.2010 19:20 0,8 C 88 % 1004,9 hPa 0,0 mm 0,0 km/h (0 Bft) N-NO 22 0 min 0 UV-I 0 W/m 1,6 km/h (1 Bft)
24.11.2010 19:30 0,8 C 88 % 1004,9 hPa 0,0 mm 0,0 km/h (0 Bft) N-NO 22 0 min 0 UV-I 0 W/m 1,6 km/h (1 Bft)
24.11.2010 19:40 0,8 C 88 % 1004,9 hPa 0,0 mm 0,0 km/h (0 Bft) N-NO 22 0 min 0 UV-I 0 W/m 1,6 km/h (1 Bft)
24.11.2010 19:50 0,8 C 88 % 1004,9 hPa 0,0 mm 0,0 km/h (0 Bft) N-NO 22 0 min 0 UV-I 0 W/m 1,6 km/h (1 Bft)
24.11.2010 20:00 0,7 C 88 % 1005,0 hPa 0,0 mm 0,0 km/h (0 Bft) N-NO 22 0 min 0 UV-I 0 W/m 1,6 km/h (1 Bft)
24.11.2010 20:10 0,7 C 88 % 1005,0 hPa 0,0 mm 0,0 km/h (0 Bft) N 0 0 min 0 UV-I 0 W/m 0,0 km/h (0 Bft)
24.11.2010 20:20 0,7 C 88 % 1004,9 hPa 0,0 mm 0,0 km/h (0 Bft) N 0 0 min 0 UV-I 0 W/m 0,0 km/h (0 Bft)
24.11.2010 20:30 0,7 C 88 % 1004,9 hPa 0,0 mm 0,0 km/h (0 Bft) N 0 0 min 0 UV-I 0 W/m 0,0 km/h (0 Bft)
24.11.2010 20:40 0,7 C 88 % 1004,8 hPa 0,0 mm 0,0 km/h (0 Bft) N-NO 22 0 min 0 UV-I 0 W/m 1,6 km/h (1 Bft)
24.11.2010 20:50 0,6 C 88 % 1004,9 hPa 0,0 mm 0,0 km/h (0 Bft) N-NO 22 0 min 0 UV-I 0 W/m 1,6 km/h (1 Bft)
24.11.2010 21:00 0,6 C 89 % 1004,8 hPa 0,0 mm 0,0 km/h (0 Bft) N 0 0 min 0 UV-I 0 W/m 0,0 km/h (0 Bft)
24.11.2010 21:10 0,6 C 89 % 1004,9 hPa 0,0 mm 0,0 km/h (0 Bft) N 0 0 min 0 UV-I 0 W/m 0,0 km/h (0 Bft)
24.11.2010 21:20 0,6 C 89 % 1005,0 hPa 0,0 mm 0,0 km/h (0 Bft) N 0 0 min 0 UV-I 0 W/m 0,0 km/h (0 Bft)
24.11.2010 21:30 0,6 C 89 % 1005,0 hPa 0,0 mm 0,0 km/h (0 Bft) N 0 0 min 0 UV-I 0 W/m 0,0 km/h (0 Bft)
24.11.2010 21:40 0,6 C 89 % 1005,0 hPa 0,0 mm 0,0 km/h (0 Bft) N 0 0 min 0 UV-I 0 W/m 0,0 km/h (0 Bft)
24.11.2010 21:50 0,6 C 89 % 1004,9 hPa 0,0 mm 0,0 km/h (0 Bft) N 0 0 min 0 UV-I 0 W/m 0,0 km/h (0 Bft)
24.11.2010 22:00 0,6 C 89 % 1004,7 hPa 0,0 mm 0,0 km/h (0 Bft) N 0 0 min 0 UV-I 0 W/m 0,0 km/h (0 Bft)
24.11.2010 22:10 0,7 C 89 % 1004,7 hPa 0,0 mm 0,0 km/h (0 Bft) N 0 0 min 0 UV-I 0 W/m 0,0 km/h (0 Bft)
24.11.2010 22:20 0,7 C 89 % 1004,7 hPa 0,0 mm 0,0 km/h (0 Bft) N 0 0 min 0 UV-I 0 W/m 0,0 km/h (0 Bft)
24.11.2010 22:30 0,7 C 89 % 1004,6 hPa 0,0 mm 0,0 km/h (0 Bft) N 0 0 min 0 UV-I 0 W/m 0,0 km/h (0 Bft)
24.11.2010 22:40 0,6 C 89 % 1004,5 hPa 0,0 mm 0,0 km/h (0 Bft) N 0 0 min 0 UV-I 0 W/m 0,0 km/h (0 Bft)
24.11.2010 22:50 0,5 C 90 % 1004,5 hPa 0,0 mm 0,0 km/h (0 Bft) N 0 0 min 0 UV-I 0 W/m 0,0 km/h (0 Bft)
24.11.2010 23:00 0,4 C 90 % 1004,5 hPa 0,0 mm 0,0 km/h (0 Bft) N-NO 22 0 min 0 UV-I 0 W/m 1,6 km/h (1 Bft)
24.11.2010 23:10 0,3 C 89 % 1004,4 hPa 0,0 mm 0,0 km/h (0 Bft) N-NO 22 0 min 0 UV-I 0 W/m 1,6 km/h (1 Bft)
24.11.2010 23:20 0,2 C 90 % 1004,4 hPa 0,0 mm 0,0 km/h (0 Bft) N-NO 22 0 min 0 UV-I 0 W/m 1,6 km/h (1 Bft)
24.11.2010 23:30 0,2 C 90 % 1004,4 hPa 0,0 mm 0,0 km/h (0 Bft) N 0 0 min 0 UV-I 0 W/m 0,0 km/h (0 Bft)
24.11.2010 23:40 0,2 C 90 % 1004,4 hPa 0,0 mm 0,0 km/h (0 Bft) N 0 0 min 0 UV-I 0 W/m 0,0 km/h (0 Bft)
24.11.2010 23:50 0,3 C 90 % 1004,3 hPa 0,0 mm 0,0 km/h (0 Bft) N-NO 22 0 min 0 UV-I 0 W/m 3,2 km/h (1 Bft)
_ Min-Zeit 23:10 15:40 00:10 - 08:30 - - - - - 17:10
Minimum _ 0,2 C 85 % 1001,6 hPa - 0,0 km/h (0 Bft) - - - - - 0,0 km/h (0 Bft)
_ Max-Zeit 14:10 00:00 17:40 00:00 00:00 - - 10:40 10:30 10:40 00:00
Maximum _ 3,8 C 91 % 1005,1 hPa 0,3 mm 8,0 km/h
W (2 Bft)
- - 10 min 1 UV-I 183 W/m 30,6 km/h
NW (5 Bft)
Durchschnitt _ 2,5 C 89 % 1003,8 hPa #1,5 mm 2,2 km/h (1 Bft) W - #10 min. 1 UV-I 72 W/m 8,8 km/h (2 Bft)